[[[{"header":{"parameterUnit":"kt","parameterCategory":2,"dx":1,"dy":1,"la1":30.253999710083008,"la2":30.299108505249023,"lo1":-89.0895004272461,"lo2":-89.04439544677734,"nx":28,"ny":28,"refTime":"2022-09-29T21:00:00:Z","depth":0,"parameterNumber":1,"parameterNumberName":"U-component_of_WINDS"},"data":[2.0162,2.0083,2.006,1.9958,1.9921,1.9846,1.9811,1.9764,1.9721,1.9627,1.9568,1.9536,1.9481,1.9403,1.9336,1.9323,1.9294,1.9282,1.9267,1.9345,1.9354,1.9362,1.9379,1.9278,1.9278,1.9188,1.9187,1.9187,2.0219,2.0182,2.0123,2.0049,1.9997,1.9995,1.9936,1.9891,1.9823,1.977,1.9711,1.9626,1.9554,1.9502,1.9429,1.9387,1.938,1.9368,1.9368,1.9359,1.9442,1.9461,1.9376,1.9376,1.9376,1.9376,1.9376,1.9376,2.0316,2.027,2.0213,2.0148,2.0105,2.0055,2.0006,1.9968,1.9908,1.9831,1.9815,1.9737,1.9677,1.9576,1.9537,1.9473,1.948,1.9459,1.9453,1.9447,1.9443,1.9568,1.946,1.946,1.946,1.946,1.946,0,2.0379,2.0364,2.0306,2.024,2.0192,2.0138,2.0085,2.0054,2.0012,1.9963,1.9891,1.9844,1.9752,1.9678,1.9604,1.9566,1.9554,1.9552,1.9537,1.954,1.9553,1.9541,1.9674,1.9554,1.9555,1.9555,1.9556,1.9556,2.0471,2.0421,2.0352,2.0313,2.0279,2.0218,2.0176,2.0143,2.01,2.0028,1.9987,1.9915,1.9855,1.974,1.9692,1.9622,1.9615,1.9571,1.9604,1.9611,1.9608,1.961,1.9602,1.9564,1.9563,1.9562,1.9561,0,2.0524,2.0489,2.0404,2.0339,2.0321,2.0269,2.0212,2.0164,2.0132,2.006,2.0041,1.999,1.9918,1.9878,1.9787,1.9767,1.9674,1.9672,1.9695,1.969,1.9644,1.9647,1.9508,1.9486,1.9596,1.9595,1.9594,0,2.0587,2.0522,2.0473,2.0425,2.0351,2.032,2.0247,2.0212,2.0162,2.0105,2.0088,2.0034,1.9992,1.9932,1.9903,1.9821,1.9805,1.9783,1.9775,1.9782,1.9784,1.9753,1.9756,1.9765,1.9766,1.9767,1.9767,0,2.0671,2.057,2.0493,2.0464,2.0388,2.0352,2.0318,2.0261,2.0219,2.016,2.0132,2.0065,2.0026,1.9973,1.9936,1.996,1.9836,1.986,1.9813,1.9814,1.9784,1.9786,1.9678,1.9768,1.9768,1.9769,1.9769,0,2.0714,2.0658,2.0554,2.0489,2.0463,2.0413,2.0345,2.0293,2.0233,2.0213,2.0165,2.0148,2.0076,2.0102,2.0001,2.0041,2.0003,1.9977,1.9973,1.996,1.9989,1.9928,1.9833,1.9819,1.9953,1.9955,1.9956,0,2.0817,2.0703,2.0676,2.0577,2.0518,2.0503,2.0446,2.0395,2.0363,2.0306,2.027,2.0205,2.0217,2.019,2.0146,2.0104,2.0052,2.0111,2.0022,2.0019,2.0034,1.9948,1.9941,1.9859,1.9975,1.9973,1.9972,0,2.0892,2.0803,2.0787,2.0752,2.0681,2.0632,2.0568,2.0498,2.0461,2.0407,2.0348,2.0258,2.0262,2.0219,2.0197,2.0153,2.0086,2.0162,2.016,2.0146,1.9983,1.9977,1.9964,2.0081,2.0079,2.0077,1.9987,0,2.0959,2.0898,2.0856,2.0781,2.0737,2.0675,2.0634,2.0593,2.0578,2.0545,2.0461,2.0407,2.0333,2.0309,2.0293,2.0206,2.0213,2.0218,2.0236,2.0182,2.015,2.0138,2.0286,2.0286,2.0287,2.0287,0,0,2.1064,2.0977,2.0949,2.0886,2.0847,2.0832,2.0768,2.0728,2.0647,2.0619,2.0631,2.0495,2.045,2.0351,2.0331,2.0303,2.0281,2.0302,2.0209,2.0201,2.0193,2.016,2.0148,2.0287,2.0287,2.0288,2.0288,0,2.1079,2.1041,2.098,2.0938,2.0875,2.0844,2.083,2.0764,2.0739,2.0659,2.0644,2.0588,2.0481,2.0434,2.0396,2.0315,2.0304,2.0296,2.0265,2.0214,2.0205,2.0197,2.0163,2.0153,2.0288,2.0288,2.0288,0,2.1143,2.1097,2.1064,2.0978,2.0936,2.0877,2.0888,2.0826,2.078,2.0763,2.0682,2.0646,2.0581,2.0494,2.0454,2.0462,2.0327,2.0363,2.036,2.0353,2.0301,2.0291,2.0282,2.0404,2.0404,2.0405,0,0,2.1161,2.1106,2.1045,2.0978,2.0953,2.0907,2.0871,2.0852,2.0796,2.0773,2.0727,2.0671,2.0607,2.0566,2.0505,2.0417,2.0398,2.0379,2.0374,2.037,2.036,2.0307,2.0297,2.0407,2.0407,2.0407,0,0,2.1169,2.1096,2.1091,2.101,2.0959,2.0891,2.0851,2.0842,2.0783,2.0785,2.0747,2.073,2.0649,2.0613,2.0648,2.051,2.053,2.0521,2.0536,2.0528,2.0523,2.0531,2.0649,0,0,0,0,0,2.1164,2.1106,2.1102,2.1082,2.0973,2.0894,2.088,2.0848,2.0863,2.0831,2.0791,2.0783,2.0624,2.0654,2.0633,2.0593,2.0435,2.043,2.0426,2.0423,2.0416,2.041,0,0,0,0,0,0,2.1156,2.1132,2.1103,2.1035,2.101,2.0896,2.0914,2.0904,2.0866,2.0866,2.0792,2.0781,2.0751,2.0662,2.0644,2.0607,2.0655,2.0433,2.0429,2.0425,2.0421,2.0415,2.041,0,0,0,0,0,2.1149,2.113,2.0964,2.1035,2.1013,2.0958,2.0916,2.0907,2.0877,2.0814,2.0803,2.0857,2.0751,2.0733,2.0651,2.0616,2.0667,2.066,2.0431,2.0427,2.0424,2.0418,0,0,0,0,0,0,2.1145,2.1121,2.0958,2.0951,2.1055,2.0963,2.0948,2.0911,2.0827,2.0816,2.0878,2.0878,2.075,2.0736,2.0723,2.0621,2.0677,2.067,2.0666,2.0428,2.0425,2.0423,0,0,0,0,0,0,2.1131,2.1114,2.0954,2.0982,2.0976,2.0969,2.0955,2.088,2.0826,2.0895,2.0893,2.0879,2.0769,2.0738,2.0728,2.0612,2.0684,2.0678,2.0674,2.0671,2.0426,2.0424,0,0,0,0,0,0,2.1123,2.1109,2.0983,2.098,2.0975,2.0884,2.0902,2.079,2.0853,2.0899,2.0858,2.086,2.0771,2.076,2.0731,2.0621,2.0615,2.0684,2.068,2.0677,2.0675,0,0,0,0,0,0,0,2.1117,2.1221,2.1006,2.0978,2.0974,2.0877,2.0875,2.0873,2.0854,2.0855,2.0857,2.0859,2.0721,2.0714,2.0707,2.0627,0,0,2.0685,2.0682,0,0,0,0,0,0,0,0,2.1226,2.1222,2.1006,2.1004,2.1002,2.0877,2.0875,2.0873,2.0854,2.0855,2.0857,2.0858,2.0719,2.0714,2.0708,0,0,0,0,0,0,0,0,0,0,0,0,0,0,0,2.1005,2.1004,0,2.0877,2.0875,2.0874,2.0854,2.0855,2.0856,2.0858,2.0718,2.0713,2.0708,0,0,0,0,0,0,0,0,0,0,0,0,0,0,0,0,0,0,0,0,0,0,0,0,0,0,0,0,0,0,0,0,0,0,0,0,0,0,0,0,0,0,0,0,0,0,0,0,0,0,0,0,0,0,0,0,0,0,0,0,0,0,0,0,0,0,0,0,0]}],[{"header":{"parameterUnit":"kt","parameterCategory":2,"dx":1,"dy":1,"la1":30.253999710083008,"la2":30.299108505249023,"lo1":-89.0895004272461,"lo2":-89.04439544677734,"nx":28,"ny":28,"refTime":"2022-09-29T21:00:00:Z","depth":0,"parameterNumber":2,"parameterNumberName":"V-component_of_WINDS"},"data":[-9.432,-9.4588,-9.4637,-9.4965,-9.5063,-9.5295,-9.5393,-9.5524,-9.564,-9.592,-9.6089,-9.6163,-9.6296,-9.6508,-9.6691,-9.672,-9.6793,-9.6853,-9.6876,-9.6568,-9.6528,-9.649,-9.643,-9.6869,-9.687,-9.7188,-9.7191,-9.7193,-9.4086,-9.4187,-9.4376,-9.4591,-9.4752,-9.4723,-9.4891,-9.5027,-9.5234,-9.5379,-9.5549,-9.5799,-9.6001,-9.6116,-9.6318,-9.6442,-9.6439,-9.6493,-9.6484,-9.6505,-9.6178,-9.6114,-9.6492,-9.6492,-9.6492,-9.6492,-9.6492,-9.6492,-9.3674,-9.3834,-9.3993,-9.4198,-9.4319,-9.4462,-9.4622,-9.4711,-9.4894,-9.5114,-9.5134,-9.5369,-9.5522,-9.5789,-9.589,-9.6073,-9.6021,-9.6094,-9.6113,-9.613,-9.6142,-9.5674,-9.6109,-9.6108,-9.6107,-9.6107,-9.6106,0,-9.3387,-9.3417,-9.3602,-9.3801,-9.3953,-9.4111,-9.4264,-9.4364,-9.4442,-9.459,-9.4809,-9.4942,-9.5205,-9.5414,-9.5614,-9.5704,-9.5687,-9.5691,-9.5742,-9.5735,-9.5702,-9.5721,-9.5184,-9.5678,-9.5675,-9.5672,-9.567,-9.5669,-9.2974,-9.3156,-9.3345,-9.3468,-9.3564,-9.3762,-9.3889,-9.3944,-9.4076,-9.4272,-9.4409,-9.462,-9.4792,-9.5132,-9.5231,-9.5427,-9.542,-9.5603,-9.5449,-9.5435,-9.5422,-9.541,-9.5427,-9.5632,-9.5636,-9.564,-9.5643,0,-9.2736,-9.2815,-9.3112,-9.3282,-9.333,-9.3516,-9.3661,-9.3822,-9.389,-9.4121,-9.4178,-9.4285,-9.4498,-9.4569,-9.4825,-9.4855,-9.5159,-9.5148,-9.5106,-9.5107,-9.5277,-9.526,-9.5822,-9.5897,-9.5444,-9.5448,-9.5452,0,-9.2414,-9.265,-9.2754,-9.2922,-9.3185,-9.3235,-9.3493,-9.3578,-9.3713,-9.3895,-9.3889,-9.406,-9.4124,-9.4304,-9.4349,-9.461,-9.4659,-9.4697,-9.4706,-9.4697,-9.4692,-9.4766,-9.4744,-9.4721,-9.4718,-9.4715,-9.4713,0,-9.2033,-9.2366,-9.2639,-9.2728,-9.2933,-9.3059,-9.315,-9.3301,-9.3425,-9.3597,-9.3678,-9.3874,-9.3982,-9.4133,-9.4189,-9.4081,-9.451,-9.4374,-9.4549,-9.4547,-9.4639,-9.4633,-9.5113,-9.4709,-9.4708,-9.4707,-9.4706,0,-9.1784,-9.196,-9.2346,-9.2515,-9.26,-9.2781,-9.2978,-9.3149,-9.3308,-9.3349,-9.3485,-9.3489,-9.3724,-9.3583,-9.3908,-9.3752,-9.3857,-9.3916,-9.3929,-9.3954,-9.3794,-9.4054,-9.4506,-9.4555,-9.3977,-9.3971,-9.3965,0,-9.1326,-9.1736,-9.1782,-9.2147,-9.2346,-9.2326,-9.2527,-9.2669,-9.274,-9.2918,-9.2995,-9.3197,-9.3108,-9.318,-9.3332,-9.3419,-9.3622,-9.3394,-9.3646,-9.3654,-9.3603,-9.402,-9.4069,-9.4399,-9.3889,-9.3897,-9.3903,0,-9.098,-9.1229,-9.1291,-9.1394,-9.1592,-9.1758,-9.1989,-9.2201,-9.2317,-9.2478,-9.2671,-9.2958,-9.2901,-9.3022,-9.3046,-9.32,-9.3486,-9.3119,-9.3123,-9.3181,-9.3856,-9.3902,-9.3957,-9.3468,-9.3477,-9.3485,-9.3842,0,-9.0584,-9.0801,-9.0972,-9.12,-9.134,-9.1573,-9.1651,-9.1787,-9.1796,-9.1866,-9.2152,-9.2288,-9.2503,-9.2585,-9.2596,-9.2926,-9.2882,-9.2819,-9.2687,-9.296,-9.308,-9.3129,-9.2503,-9.2499,-9.2496,-9.2494,0,0,-9.0125,-9.0437,-9.0481,-9.0708,-9.0829,-9.0805,-9.1047,-9.1161,-9.1394,-9.1478,-9.1405,-9.1828,-9.1942,-9.2281,-9.2372,-9.246,-9.2525,-9.2427,-9.283,-9.2867,-9.2902,-9.3028,-9.3078,-9.2489,-9.2488,-9.2487,-9.2486,0,-8.9997,-9.0116,-9.0356,-9.0477,-9.0658,-9.0721,-9.0779,-9.0954,-9.1009,-9.1291,-9.1266,-9.1447,-9.1785,-9.1908,-9.2015,-9.2388,-9.2358,-9.2448,-9.2623,-9.2798,-9.2839,-9.2876,-9.3008,-9.3055,-9.2479,-9.2479,-9.248,0,-8.9669,-8.9799,-8.9923,-9.0199,-9.0318,-9.0523,-9.0404,-9.0627,-9.078,-9.0741,-9.1021,-9.1107,-9.1278,-9.1589,-9.1732,-9.1669,-9.2202,-9.2048,-9.2069,-9.2086,-9.2259,-9.2308,-9.2352,-9.1774,-9.1772,-9.1769,0,0,-8.9547,-8.9749,-8.9905,-9.0178,-9.0254,-9.0351,-9.0468,-9.049,-9.0646,-9.0708,-9.0818,-9.0969,-9.1165,-9.1293,-9.1482,-9.1813,-9.1852,-9.1958,-9.1992,-9.2018,-9.205,-9.223,-9.2279,-9.1759,-9.1758,-9.1758,0,0,-8.9489,-8.9681,-8.9664,-8.999,-9.0139,-9.031,-9.0473,-9.0455,-9.0633,-9.0615,-9.0661,-9.0703,-9.0995,-9.1081,-9.0932,-9.1435,-9.1303,-9.134,-9.1369,-9.1412,-9.1445,-9.1418,-9.0827,0,0,0,0,0,-8.9398,-8.9657,-8.9639,-8.9706,-9.0054,-9.032,-9.0365,-9.041,-9.0315,-9.0443,-9.0531,-9.0492,-9.101,-9.0879,-9.0943,-9.1108,-9.1624,-9.1648,-9.167,-9.1786,-9.183,-9.1867,0,0,0,0,0,0,-8.9424,-8.9505,-8.9633,-8.9814,-8.9892,-9.0311,-9.016,-9.018,-9.0302,-9.0291,-9.0476,-9.0498,-9.054,-9.0849,-9.0906,-9.1062,-9.0808,-9.1633,-9.1654,-9.1672,-9.1801,-9.1837,-9.1868,0,0,0,0,0,-8.9445,-8.9511,-9.0058,-8.981,-8.9879,-9.0,-9.0151,-9.0166,-9.0261,-9.04,-9.042,-9.0284,-9.0543,-9.0594,-9.0883,-9.1035,-9.0769,-9.079,-9.1646,-9.1662,-9.1677,-9.1819,0,0,0,0,0,0,-8.9461,-8.9526,-9.0073,-9.0095,-8.9716,-8.9978,-9.002,-9.0154,-9.0363,-9.0386,-9.0208,-9.0197,-9.0549,-9.0587,-9.0627,-9.1023,-9.0737,-9.0759,-9.0772,-9.1659,-9.1671,-9.1682,0,0,0,0,0,0,-8.9491,-8.9545,-9.0085,-8.9963,-8.9972,-8.9957,-8.9995,-9.0246,-9.0366,-9.016,-9.0157,-9.0201,-9.0489,-9.0584,-9.0614,-9.1006,-9.0712,-9.0733,-9.0747,-9.0756,-9.1669,-9.1679,0,0,0,0,0,0,-8.9514,-8.9561,-8.9957,-8.9964,-8.9972,-9.0227,-9.0179,-9.0534,-9.0263,-9.0151,-9.024,-9.0229,-9.0487,-9.0518,-9.0606,-9.0985,-9.1,-9.0713,-9.0727,-9.0737,-9.0744,0,0,0,0,0,0,0,-8.9534,-8.9212,-8.994,-8.9966,-8.9971,-9.0303,-9.0309,-9.0315,-9.0261,-9.0251,-9.0242,-9.0234,-9.0595,-9.0617,-9.064,-9.0967,0,0,-9.0711,-9.0721,0,0,0,0,0,0,0,0,-8.9194,-8.9208,-8.9941,-8.9946,-8.995,-9.0304,-9.0309,-9.0314,-9.0259,-9.0251,-9.0244,-9.0237,-9.0601,-9.0619,-9.0637,0,0,0,0,0,0,0,0,0,0,0,0,0,0,0,-8.9941,-8.9945,0,-9.0305,-9.0309,-9.0313,-9.0258,-9.0252,-9.0246,-9.024,-9.0606,-9.0621,-9.0636,0,0,0,0,0,0,0,0,0,0,0,0,0,0,0,0,0,0,0,0,0,0,0,0,0,0,0,0,0,0,0,0,0,0,0,0,0,0,0,0,0,0,0,0,0,0,0,0,0,0,0,0,0,0,0,0,0,0,0,0,0,0,0,0,0,0,0,0,0]}]]]